Location: Cartignies
(50.0929°N, 3.8447°E)
Time: 14:56:43
(UTC+00:00)

Cosmos 2297 - Pass Details

Date: 12 January 2026
Orbit: 835 x 857 km, 71.0° (Epoch: 16 February)

Event Time Altitude Azimuth Distance (km) Brightness Sun altitude
Rises 17:26:19 0° 328° (NNW) 3,400 7.0 -12.3°
Reaches altitude 10° 17:28:48 10° 325° (NW) 2,463 6.3 -12.6°
Maximum altitude 17:34:19 57° 248° (WSW) 987 4.4 -13.5°
Drops below altitude 10° 17:39:49 10° 171° (S) 2,460 6.2 -14.3°
Sets 17:42:18 0° 167° (SSE) 3,394 6.9 -14.7°
